Time,TemperatureF,DewpointF,PressureIn,WindDirection,WindDirectionDegrees,WindSpeedMPH,WindSpeedGustMPH,Humidity,HourlyPrecipIn,Conditions,Clouds,dailyrainin,SoftwareType,DateUTC
2013-02-13 00:02:00,36.0,34.0,29.95,NW,314,2.0,8.0,94,0.06,,,0.17,,2013-02-13 06:02:00,
2013-02-13 00:11:00,36.0,34.0,29.95,NNW,328,3.0,6.0,94,0.04,,,0.17,,2013-02-13 06:11:00,
2013-02-13 00:21:00,36.0,34.0,29.95,NNW,328,3.0,6.0,94,0.04,,,0.17,,2013-02-13 06:21:00,
2013-02-13 00:32:00,36.0,34.0,29.94,NNW,340,2.0,10.0,94,0.04,,,0.18,,2013-02-13 06:32:00,
2013-02-13 00:42:00,36.0,34.0,29.94,NNW,345,4.0,10.0,94,0.04,,,0.19,,2013-02-13 06:42:00,
2013-02-13 00:51:00,36.0,34.0,29.94,NNW,345,4.0,10.0,94,0.04,,,0.19,,2013-02-13 06:51:00,
2013-02-13 01:02:00,36.0,34.0,29.94,WNW,298,3.0,9.0,94,0.03,,,0.20,,2013-02-13 07:02:00,
2013-02-13 01:11:00,36.0,35.0,29.94,NW,325,3.0,7.0,95,0.03,,,0.21,,2013-02-13 07:11:00,
2013-02-13 01:21:00,36.0,35.0,29.94,NW,325,3.0,7.0,95,0.03,,,0.21,,2013-02-13 07:21:00,
2013-02-13 01:32:00,36.0,35.0,29.94,NNW,340,1.0,4.0,95,0.04,,,0.22,,2013-02-13 07:32:00,
2013-02-13 01:42:00,36.0,35.0,29.94,NNE,32,2.0,6.0,95,0.04,,,0.23,,2013-02-13 07:42:00,
2013-02-13 01:51:00,36.0,35.0,29.94,NNE,32,2.0,6.0,95,0.04,,,0.23,,2013-02-13 07:51:00,
2013-02-13 02:01:00,35.0,34.0,29.93,NNW,339,2.0,7.0,95,0.04,,,0.24,,2013-02-13 08:01:00,
2013-02-13 02:11:00,35.0,34.0,29.93,NNW,339,2.0,7.0,95,0.04,,,0.24,,2013-02-13 08:11:00,
2013-02-13 02:21:00,35.0,34.0,29.94,NNE,17,1.0,8.0,95,0.05,,,0.26,,2013-02-13 08:21:00,
2013-02-13 02:32:00,35.0,34.0,29.93,NW,324,1.0,4.0,95,0.05,,,0.27,,2013-02-13 08:32:00,
2013-02-13 02:43:00,35.0,34.0,29.93,NW,324,1.0,4.0,95,0.05,,,0.27,,2013-02-13 08:43:00,
2013-02-13 02:52:00,35.0,34.0,29.93,NE,53,0.0,3.0,95,0.05,,,0.28,,2013-02-13 08:52:00,
2013-02-13 03:01:00,35.0,34.0,29.92,NNW,329,0.0,2.0,96,0.04,,,0.28,,2013-02-13 09:01:00,
2013-02-13 03:11:00,35.0,34.0,29.92,NNW,329,0.0,2.0,96,0.04,,,0.28,,2013-02-13 09:11:00,
2013-02-13 03:21:00,35.0,34.0,29.92,NW,322,1.0,3.0,96,0.03,,,0.28,,2013-02-13 09:21:00,
2013-02-13 03:31:00,35.0,34.0,29.91,NW,320,0.0,2.0,96,0.02,,,0.28,,2013-02-13 09:31:00,
2013-02-13 03:42:00,35.0,34.0,29.91,NW,321,1.0,3.0,96,0.02,,,0.30,,2013-02-13 09:42:00,
2013-02-13 03:51:00,35.0,34.0,29.91,NW,321,1.0,3.0,96,0.02,,,0.30,,2013-02-13 09:51:00,
2013-02-13 04:01:00,35.0,34.0,29.91,NW,304,0.0,4.0,96,0.02,,,0.30,,2013-02-13 10:01:00,
2013-02-13 04:11:00,34.0,33.0,29.92,NW,315,1.0,3.0,96,0.02,,,0.31,,2013-02-13 10:11:00,
2013-02-13 04:21:00,34.0,33.0,29.92,NW,315,1.0,3.0,96,0.02,,,0.31,,2013-02-13 10:21:00,
2013-02-13 04:32:00,34.0,33.0,29.91,WNW,298,3.0,5.0,96,0.02,,,0.31,,2013-02-13 10:32:00,
2013-02-13 04:42:00,34.0,33.0,29.92,NW,304,2.0,6.0,96,0.01,,,0.31,,2013-02-13 10:42:00,
2013-02-13 04:51:00,34.0,33.0,29.92,NW,304,2.0,6.0,96,0.01,,,0.31,,2013-02-13 10:51:00,
2013-02-13 05:01:00,34.0,33.0,29.93,NW,317,2.0,6.0,96,0.01,,,0.31,,2013-02-13 11:01:00,
2013-02-13 05:11:00,34.0,33.0,29.93,NW,317,2.0,6.0,96,0.01,,,0.31,,2013-02-13 11:11:00,
2013-02-13 05:22:00,34.0,33.0,29.93,WNW,295,2.0,6.0,96,0.00,,,0.31,,2013-02-13 11:22:00,
2013-02-13 05:32:00,34.0,33.0,29.94,NW,321,3.0,7.0,96,0.01,,,0.32,,2013-02-13 11:32:00,
2013-02-13 05:42:00,34.0,33.0,29.95,WNW,300,2.0,7.0,96,0.01,,,0.32,,2013-02-13 11:42:00,
2013-02-13 05:52:00,34.0,33.0,29.95,WNW,300,2.0,7.0,96,0.01,,,0.32,,2013-02-13 11:52:00,
2013-02-13 06:02:00,34.0,33.0,29.95,WNW,297,2.0,5.0,96,0.01,,,0.32,,2013-02-13 12:02:00,
2013-02-13 06:11:00,34.0,33.0,29.95,WNW,287,1.0,5.0,96,0.01,,,0.32,,2013-02-13 12:11:00,
2013-02-13 06:21:00,34.0,33.0,29.95,WNW,287,1.0,5.0,96,0.01,,,0.32,,2013-02-13 12:21:00,
2013-02-13 06:32:00,34.0,33.0,29.95,WNW,287,1.0,5.0,96,0.01,,,0.33,,2013-02-13 12:32:00,
2013-02-13 06:42:00,35.0,34.0,29.96,WSW,239,1.0,5.0,96,0.01,,,0.33,,2013-02-13 12:42:00,
2013-02-13 06:52:00,35.0,34.0,29.96,WSW,239,1.0,5.0,96,0.01,,,0.33,,2013-02-13 12:52:00,
2013-02-13 07:02:00,35.0,34.0,29.96,West,261,0.0,2.0,96,0.01,,,0.33,,2013-02-13 13:02:00,
2013-02-13 07:11:00,35.0,34.0,29.96,WNW,282,1.0,2.0,96,0.01,,,0.33,,2013-02-13 13:11:00,
2013-02-13 07:21:00,35.0,34.0,29.96,WNW,282,1.0,2.0,96,0.01,,,0.33,,2013-02-13 13:21:00,
2013-02-13 07:32:00,35.0,34.0,29.97,WNW,297,1.0,3.0,96,0.00,,,0.33,,2013-02-13 13:32:00,
2013-02-13 07:42:00,35.0,34.0,29.97,WSW,256,0.0,3.0,96,0.00,,,0.33,,2013-02-13 13:42:00,
2013-02-13 07:51:00,35.0,34.0,29.97,WSW,256,0.0,3.0,96,0.00,,,0.33,,2013-02-13 13:51:00,
2013-02-13 08:01:00,35.0,34.0,29.98,West,261,1.0,4.0,96,0.00,,,0.33,,2013-02-13 14:01:00,
2013-02-13 08:11:00,35.0,34.0,29.98,West,261,1.0,4.0,96,0.00,,,0.33,,2013-02-13 14:11:00,
2013-02-13 08:21:00,36.0,35.0,29.98,WNW,298,0.0,3.0,96,0.00,,,0.33,,2013-02-13 14:21:00,
2013-02-13 08:31:00,36.0,35.0,30.00,WSW,253,2.0,5.0,96,0.00,,,0.33,,2013-02-13 14:31:00,
2013-02-13 08:42:00,36.0,35.0,30.00,WNW,290,1.0,5.0,96,0.00,,,0.33,,2013-02-13 14:42:00,
2013-02-13 08:52:00,36.0,35.0,30.00,WNW,290,1.0,5.0,96,0.00,,,0.33,,2013-02-13 14:52:00,
2013-02-13 09:01:00,36.0,35.0,30.01,WNW,293,1.0,5.0,96,0.00,,,0.33,,2013-02-13 15:01:00,
2013-02-13 09:11:00,36.0,35.0,30.01,West,271,1.0,4.0,96,0.01,,,0.34,,2013-02-13 15:11:00,
2013-02-13 09:21:00,36.0,35.0,30.01,West,271,1.0,4.0,96,0.01,,,0.34,,2013-02-13 15:21:00,
2013-02-13 09:32:00,36.0,35.0,30.01,West,261,1.0,4.0,96,0.01,,,0.34,,2013-02-13 15:32:00,
2013-02-13 09:42:00,36.0,35.0,30.01,West,261,1.0,4.0,96,0.01,,,0.34,,2013-02-13 15:42:00,
2013-02-13 09:51:00,36.0,35.0,30.02,West,280,3.0,5.0,96,0.01,,,0.34,,2013-02-13 15:51:00,
2013-02-13 10:01:00,36.0,35.0,30.01,WSW,251,3.0,8.0,95,0.01,,,0.34,,2013-02-13 16:01:00,
2013-02-13 10:11:00,36.0,35.0,30.01,NW,314,2.0,6.0,95,0.00,,,0.34,,2013-02-13 16:11:00,
2013-02-13 10:21:00,36.0,35.0,30.01,NW,314,2.0,6.0,95,0.00,,,0.34,,2013-02-13 16:21:00,
2013-02-13 10:31:00,37.0,36.0,30.01,WSW,243,1.0,5.0,95,0.00,,,0.34,,2013-02-13 16:31:00,
2013-02-13 10:42:00,37.0,36.0,30.01,WSW,243,1.0,5.0,95,0.00,,,0.34,,2013-02-13 16:42:00,
2013-02-13 10:51:00,38.0,36.0,30.01,WSW,252,3.0,8.0,94,0.00,,,0.34,,2013-02-13 16:51:00,
2013-02-13 11:01:00,39.0,37.0,30.01,South,174,4.0,9.0,92,0.00,,,0.34,,2013-02-13 17:01:00,
2013-02-13 11:11:00,39.0,37.0,30.01,South,174,4.0,9.0,92,0.00,,,0.34,,2013-02-13 17:11:00,
2013-02-13 11:21:00,40.0,37.0,30.01,WNW,288,2.0,6.0,90,0.00,,,0.34,,2013-02-13 17:21:00,
2013-02-13 11:32:00,41.0,37.0,30.01,SW,215,5.0,10.0,85,0.00,,,0.34,,2013-02-13 17:32:00,
2013-02-13 11:42:00,41.0,37.0,30.01,SW,215,5.0,10.0,85,0.00,,,0.34,,2013-02-13 17:42:00,
2013-02-13 11:52:00,43.0,38.0,29.99,WNW,293,4.0,11.0,83,0.00,,,0.34,,2013-02-13 17:52:00,
2013-02-13 12:01:00,43.0,38.0,29.99,SSW,211,5.0,10.0,82,0.00,,,0.34,,2013-02-13 18:01:00,
2013-02-13 12:11:00,44.0,38.0,29.98,WSW,245,6.0,11.0,78,0.00,,,0.34,,2013-02-13 18:11:00,
2013-02-13 12:22:00,44.0,38.0,29.98,WSW,245,6.0,11.0,78,0.00,,,0.34,,2013-02-13 18:22:00,
2013-02-13 12:32:00,45.0,38.0,29.98,SW,226,5.0,12.0,75,0.00,,,0.34,,2013-02-13 18:32:00,
2013-02-13 12:42:00,45.0,38.0,29.98,SW,226,5.0,12.0,75,0.00,,,0.34,,2013-02-13 18:42:00,
2013-02-13 12:52:00,46.0,37.0,29.98,SW,232,7.0,12.0,72,0.00,,,0.34,,2013-02-13 18:52:00,
2013-02-13 13:01:00,46.0,36.0,29.96,WNW,284,7.0,11.0,68,0.00,,,0.34,,2013-02-13 19:01:00,
2013-02-13 13:11:00,47.0,36.0,29.96,WSW,243,6.0,12.0,66,0.00,,,0.34,,2013-02-13 19:11:00,
2013-02-13 13:21:00,47.0,36.0,29.96,WSW,243,6.0,12.0,66,0.00,,,0.34,,2013-02-13 19:21:00,
2013-02-13 13:32:00,48.0,36.0,29.95,WSW,241,6.0,15.0,63,0.00,,,0.34,,2013-02-13 19:32:00,
2013-02-13 13:42:00,48.0,36.0,29.95,WSW,241,6.0,15.0,63,0.00,,,0.34,,2013-02-13 19:42:00,
2013-02-13 13:51:00,49.0,36.0,29.95,SW,224,8.0,13.0,61,0.00,,,0.34,,2013-02-13 19:51:00,
2013-02-13 14:02:00,49.0,37.0,29.94,WSW,238,5.0,14.0,63,0.00,,,0.34,,2013-02-13 20:02:00,
2013-02-13 14:11:00,50.0,36.0,29.94,SW,236,6.0,12.0,59,0.00,,,0.34,,2013-02-13 20:11:00,
2013-02-13 14:21:00,50.0,36.0,29.94,SW,236,6.0,12.0,59,0.00,,,0.34,,2013-02-13 20:21:00,
2013-02-13 14:31:00,50.0,35.0,29.93,West,266,6.0,11.0,56,0.00,,,0.34,,2013-02-13 20:31:00,
2013-02-13 14:42:00,50.0,35.0,29.93,WSW,253,6.0,13.0,56,0.00,,,0.34,,2013-02-13 20:42:00,
2013-02-13 14:52:00,50.0,35.0,29.93,WSW,253,6.0,13.0,56,0.00,,,0.34,,2013-02-13 20:52:00,
2013-02-13 15:01:00,50.0,34.0,29.92,WSW,246,5.0,9.0,55,0.00,,,0.34,,2013-02-13 21:01:00,
2013-02-13 15:11:00,50.0,34.0,29.92,WSW,246,5.0,9.0,55,0.00,,,0.34,,2013-02-13 21:11:00,
2013-02-13 15:21:00,52.0,33.0,29.92,WSW,243,7.0,14.0,48,0.00,,,0.34,,2013-02-13 21:21:00,
2013-02-13 15:31:00,52.0,33.0,29.92,West,278,8.0,12.0,48,0.00,,,0.34,,2013-02-13 21:31:00,
2013-02-13 15:42:00,52.0,32.0,29.91,West,262,7.0,11.0,47,0.00,,,0.34,,2013-02-13 21:42:00,
2013-02-13 15:52:00,52.0,32.0,29.91,West,262,7.0,11.0,47,0.00,,,0.34,,2013-02-13 21:52:00,
2013-02-13 16:02:00,52.0,31.0,29.91,WNW,301,6.0,13.0,45,0.00,,,0.34,,2013-02-13 22:02:00,
2013-02-13 16:11:00,52.0,32.0,29.91,WNW,290,6.0,10.0,46,0.00,,,0.34,,2013-02-13 22:11:00,
2013-02-13 16:21:00,52.0,32.0,29.91,WNW,290,6.0,10.0,46,0.00,,,0.34,,2013-02-13 22:21:00,
2013-02-13 16:31:00,52.0,32.0,29.91,WNW,290,6.0,10.0,46,0.00,,,0.34,,2013-02-13 22:31:00,
2013-02-13 16:42:00,52.0,32.0,29.91,WNW,290,6.0,10.0,46,0.00,,,0.34,,2013-02-13 22:42:00,
2013-02-13 16:51:00,52.0,31.0,29.91,WNW,298,5.0,12.0,45,0.00,,,0.34,,2013-02-13 22:51:00,
2013-02-13 17:01:00,52.0,31.0,29.92,WNW,297,7.0,14.0,45,0.00,,,0.34,,2013-02-13 23:01:00,
2013-02-13 17:11:00,51.0,31.0,29.93,WNW,285,4.0,10.0,47,0.00,,,0.34,,2013-02-13 23:11:00,
2013-02-13 17:21:00,51.0,31.0,29.93,WNW,285,4.0,10.0,47,0.00,,,0.34,,2013-02-13 23:21:00,
2013-02-13 17:32:00,51.0,32.0,29.92,WNW,293,4.0,8.0,48,0.00,,,0.34,,2013-02-13 23:32:00,
2013-02-13 17:42:00,51.0,32.0,29.92,WNW,293,4.0,8.0,48,0.00,,,0.34,,2013-02-13 23:42:00,
2013-02-13 17:52:00,50.0,32.0,29.93,NW,307,5.0,10.0,49,0.00,,,0.34,,2013-02-13 23:52:00,
2013-02-13 18:02:00,50.0,33.0,29.92,WNW,288,2.0,6.0,51,0.00,,,0.34,,2013-02-14 00:02:00,
2013-02-13 18:11:00,50.0,33.0,29.92,WNW,288,2.0,6.0,51,0.00,,,0.34,,2013-02-14 00:11:00,
2013-02-13 18:21:00,49.0,33.0,29.93,WNW,302,1.0,4.0,53,0.00,,,0.34,,2013-02-14 00:21:00,
2013-02-13 18:32:00,48.0,33.0,29.93,NW,321,0.0,2.0,55,0.00,,,0.34,,2013-02-14 00:32:00,
2013-02-13 18:42:00,48.0,33.0,29.93,NW,321,0.0,2.0,55,0.00,,,0.34,,2013-02-14 00:42:00,
2013-02-13 18:51:00,47.0,33.0,29.93,SW,215,0.0,1.0,57,0.00,,,0.34,,2013-02-14 00:51:00,
2013-02-13 19:01:00,45.0,32.0,29.93,SW,215,0.0,1.0,61,0.00,,,0.34,,2013-02-14 01:01:00,
2013-02-13 19:11:00,45.0,32.0,29.93,SW,215,0.0,1.0,61,0.00,,,0.34,,2013-02-14 01:11:00,
2013-02-13 19:21:00,44.0,32.0,29.93,South,172,0.0,1.0,63,0.00,,,0.34,,2013-02-14 01:21:00,
2013-02-13 19:31:00,42.0,32.0,29.93,South,173,0.0,1.0,68,0.00,,,0.34,,2013-02-14 01:31:00,
2013-02-13 19:41:00,42.0,32.0,29.93,South,173,0.0,1.0,68,0.00,,,0.34,,2013-02-14 01:41:00,
2013-02-13 19:51:00,40.0,32.0,29.93,South,173,0.0,0.0,74,0.00,,,0.34,,2013-02-14 01:51:00,
2013-02-13 20:01:00,39.0,33.0,29.94,South,172,0.0,1.0,78,0.00,,,0.34,,2013-02-14 02:01:00,
2013-02-13 20:11:00,39.0,33.0,29.94,South,172,0.0,1.0,78,0.00,,,0.34,,2013-02-14 02:11:00,
2013-02-13 20:21:00,39.0,33.0,29.94,South,172,0.0,1.0,78,0.00,,,0.34,,2013-02-14 02:21:00,
2013-02-13 20:31:00,37.0,32.0,29.94,South,172,0.0,0.0,81,0.00,,,0.34,,2013-02-14 02:31:00,
2013-02-13 20:42:00,37.0,32.0,29.94,South,172,0.0,0.0,81,0.00,,,0.34,,2013-02-14 02:42:00,
2013-02-13 20:52:00,37.0,32.0,29.94,South,172,0.0,0.0,81,0.00,,,0.34,,2013-02-14 02:52:00,
2013-02-13 21:02:00,37.0,32.0,29.94,South,172,0.0,0.0,83,0.00,,,0.34,,2013-02-14 03:02:00,
2013-02-13 21:11:00,35.0,31.0,29.94,South,172,0.0,0.0,84,0.00,,,0.34,,2013-02-14 03:11:00,
2013-02-13 21:21:00,35.0,31.0,29.94,South,172,0.0,0.0,84,0.00,,,0.34,,2013-02-14 03:21:00,
2013-02-13 21:31:00,35.0,32.0,29.95,South,172,0.0,1.0,87,0.00,,,0.32,,2013-02-14 03:31:00,
2013-02-13 21:42:00,35.0,32.0,29.95,South,172,0.0,1.0,87,0.00,,,0.32,,2013-02-14 03:42:00,
2013-02-13 21:51:00,34.0,31.0,29.95,South,172,0.0,0.0,87,0.00,,,0.32,,2013-02-14 03:51:00,
2013-02-13 22:01:00,33.0,30.0,29.95,South,172,0.0,0.0,90,0.00,,,0.32,,2013-02-14 04:01:00,
2013-02-13 22:12:00,34.0,32.0,29.96,South,172,0.0,0.0,91,0.00,,,0.32,,2013-02-14 04:12:00,
2013-02-13 22:21:00,34.0,32.0,29.96,South,172,0.0,0.0,91,0.00,,,0.32,,2013-02-14 04:21:00,
2013-02-13 22:31:00,33.0,31.0,29.96,South,172,0.0,0.0,91,0.00,,,0.27,,2013-02-14 04:31:00,
2013-02-13 23:02:00,32.0,30.0,29.96,South,172,0.0,0.0,92,0.00,,,0.27,,2013-02-14 05:02:00,
2013-02-13 23:21:00,32.0,30.0,29.96,South,172,0.0,0.0,93,0.00,,,0.27,,2013-02-14 05:21:00,
2013-02-13 23:31:00,32.0,30.0,29.96,South,172,0.0,1.0,93,0.00,,,0.20,,2013-02-14 05:31:00,
2013-02-13 23:42:00,32.0,30.0,29.96,South,172,0.0,1.0,93,0.00,,,0.20,,2013-02-14 05:42:00,
2013-02-13 23:52:00,32.0,30.0,29.96,South,172,0.0,1.0,93,0.00,,,0.20,,2013-02-14 05:52:00,